Regional Weather Roundup
Issued by NWS

Home | Current Version | Previous Version | Text Only | Print | Product List | Glossary Off
Versions: 1 2 3 4 5 6 7 8 9 10 11 12 13 14 15 16 17 18 19 20 21 22 23 24 25 26 27 28 29 30 31 32 33 34 35 36 37 38 39 40 41 42 43 44 45 46 47 48 49 50

763
ASUS45 KBOU 260307
RWRCO

WEATHER ROUNDUP FOR COLORADO
NATIONAL WEATHER SERVICE DENVER/BOULDER CO
800 PM MST SAT FEB 25 2017

NOTE: "FAIR" INDICATES FEW OR NO CLOUDS BELOW 12000 FEET WITH NO
SIGNIFICANT WEATHER AND/OR OBSTRUCTIONS TO VISIBILITY.

COZ001>005-013-030-031-260400-
...NORTHWEST COLORADO...

CITY           SKY/WX    TMP DP  RH WIND       PRES   REMARKS
CRAIG          CLOUDY    20  13  74 W10       29.87S WCI   9
HAYDEN         FAIR      16  10  79 W12       29.84S WCI   3
MEEKER         FLURRIES  23  14  68 W12       29.87R WCI  12
MOUNT WERNER   NOT AVBL
STEAMBOAT SPGS CLOUDY    16  11  81 W8        29.83S WCI   5
WALDEN         NOT AVBL
$$

COZ006>008-011-260400-
...WEST CENTRAL VALLEYS...

CITY           SKY/WX    TMP DP  RH WIND       PRES   REMARKS
GRAND JUNCTION CLOUDY    33  12  41 NW8       29.91R WCI  26
MONTROSE       MOCLDY    30   7  37 CALM      29.90S
EAGLE          CLOUDY    25  10  54 W12       29.86S WCI  14
RIFLE          FAIR      28  14  55 NW3       29.89R
DELTA          CLOUDY    36   4  25 NW12      29.89S
NUCLA          MOCLDY    32   7  34 W5        29.92S WCI  27
$$

COZ017>023-064>068-260400-
...SOUTHWEST COLORADO...

CITY           SKY/WX    TMP DP  RH WIND       PRES   REMARKS
DURANGO        CLOUDY    29   6  38 VRB6      29.86F WCI  23
CORTEZ         CLOUDY    30  14  51 CALM      29.90S
PAGOSA SPRINGS CLOUDY    28   3  34 SW7       29.85S WCI  20
TELLURIDE      MOCLDY    19   5  54 W3        29.85S
WOLF CREEK PAS CLOUDY     3   3 100 S23G31    29.78R WCI -19
$$

COZ009-010-012-014-032>034-037-058>063-260400-
...CENTRAL COLORADO...

CITY           SKY/WX    TMP DP  RH WIND       PRES   REMARKS
ASPEN          CLOUDY    16  12  84 SW3       29.80S
BUENA VISTA    CLOUDY    21   2  43 W14G21    29.77S WCI   8
COPPER MTN     LGT SNOW   5  -4  66 MISG      29.63R VSB 3/4
BERTHOUD PASS  SNOW      -4 -15  59 MISG      29.47F VSB 1/2
COTTONWOOD PAS CLOUDY    18   1  49 W6        29.71S WCI   9
GUNNISON       FLURRIES  19  10  68 CALM      29.84S
KREMMLING      LGT SNOW  21  16  79 N5        29.80R WCI  15
LEADVILLE      LGT SNOW   8   0  69 NW16      29.71R WCI -10
MONARCH PASS   LGT SNOW   3  -2  78 SW30G38   29.74S VSB 3/4 WCI -21
SALIDA         CLOUDY    25   5  42 SW14G20   29.87S WCI  13
SUNLIGHT       NOT AVBL
WILKERSON PASS CLOUDY     3  -2  78 SW9G18    29.68S WCI -11
$$

COZ069>075-260400-
...SAN LUIS VALLEY/SANGRE DE CRISTO MOUNTAINS...

CITY           SKY/WX    TMP DP  RH WIND       PRES   REMARKS
ALAMOSA        MOCLDY    26  14  60 SW8       29.80S WCI  18
LA VETA PASS   CLOUDY    16   5  62 SW16G33   29.73S WCI   0
SAGUACHE       FAIR      21   7  53 N12       29.81S WCI   9
$$

COZ035-036-038>040-260400-
...NORTHERN COLORADO FRONT RANGE...

CITY           SKY/WX    TMP DP  RH WIND       PRES   REMARKS
DENVER INTL AP FAIR      25   4  40 S9        29.77F WCI  15
DMNS CITY PARK   N/A     30   2  30 SW9       29.77F WCI  21
AURORA         PTCLDY    26   2  35 SW10      29.77F WCI  16
FRONT RANGE AP PTCLDY    21   9  58 S7        29.79F WCI  13
ERIE MUNI ARPT FAIR      26   5  42 SW3       29.78F
BOULDER MUN AP CLOUDY    32   5  32 SW9       29.76F WCI  24
CENTENNIAL     FAIR      25   3  38 SW7       29.77F WCI  17
BROOMFIELD     CLOUDY    23   7  50 W7        29.77F WCI  15
FORT COLLINS   FAIR      27  10  49 CALM      29.79S
LONGMONT       CLOUDY    29  16  57 W3        29.80F
$$

COZ041-046-047-076>085-087-088-260400-
...PIKES PEAK/PALMER DIVIDE AND SOUTHERN FOOTHILLS...

CITY           SKY/WX    TMP DP  RH WIND       PRES   REMARKS
COLO. SPRINGS  FAIR      28  -8  20 NW6       29.80F WCI  22
A. F. ACADEMY  FAIR      26  -5  26 W6        29.78S WCI  19
SCHRIEVER AFB  FAIR      24  -7  25 W9        29.80S WCI  14
ELLICOTT       NOT AVBL
FALCON         FAIR      23  -6  28 W7        29.79S WCI  15
FORT CARSON    FAIR      29  -6  22 W10G17    29.79F WCI  20
LIMON          FAIR      15   7  70 N9        29.80F WCI   3
MONUMENT HILL  FAIR      14   0  52 SW7       29.79S WCI   4
TRINIDAD       FAIR      31   2  29 W9        29.81R WCI  23
$$

COZ042>045-048>051-090-091-260400-
...NORTHEAST COLORADO...

CITY           SKY/WX    TMP DP  RH WIND       PRES   REMARKS
GREELEY ARPT   FAIR      24  13  62 NW3       29.81S
AKRON          FAIR      25  16  68 S3        29.82S
BURLINGTON     CLOUDY    25   5  42 E8        29.83R WCI  16
WRAY           NOT AVBL
STERLING       NOT AVBL
HOLYOKE        FAIR      32  23  69 S10       29.84F WCI  24
FORT MORGAN    FAIR      24  17  77 E5        29.82S WCI  18
$$

COZ086-089-092>099-260400-
...SOUTHEAST COLORADO...

CITY           SKY/WX    TMP DP  RH WIND       PRES   REMARKS
PUEBLO         FAIR      35  -5  18 NW15      29.80R WCI  25
LA JUNTA       FAIR      35  -3  19 NW12      29.81R WCI  27
LAMAR          FAIR      31   3  30 CALM      29.79R
SPRINGFIELD      N/A     28   4  35 N6        29.79R WCI  22
$$




USA.gov is the U.S. government's official web portal to all federal, state and local government web resources and services.